Date,TemperatureHighF,TemperatureAvgF,TemperatureLowF,DewpointHighF,DewpointAvgF,DewpointLowF,HumidityHigh,HumidityAvg,HumidityLow,PressureMaxIn,PressureMinIn,WindSpeedMaxMPH,WindSpeedAvgMPH,GustSpeedMaxMPH,PrecipitationSumIn
2013-2-1,31,24,18,15,8,2,68,51,37,29.76,29.27,16,6,22,0.00
2013-2-2,26,22,9,12,5,1,71,48,40,29.94,29.73,10,4,16,0.00
2013-2-3,25,20,13,21,17,11,93,90,63,29.74,29.47,7,1,12,0.01
2013-2-4,27,24,17,12,6,3,82,47,38,29.60,29.42,16,7,20,0.00
2013-2-5,28,23,16,17,11,5,92,61,45,29.72,29.63,6,1,8,0.00
2013-2-6,36,26,18,26,17,3,94,72,45,29.99,29.61,10,2,19,0.02
2013-2-7,29,22,8,4,0,-4,62,38,29,30.22,29.99,9,1,13,0.00
2013-2-8,20,18,16,17,12,0,93,80,40,30.19,29.64,8,2,12,0.00
2013-2-9,18,14,10,16,11,2,93,85,70,29.92,29.50,11,3,18,0.00
2013-2-10,40,21,7,15,1,-3,80,46,22,30.06,29.92,10,2,11,0.27
2013-2-11,30,22,18,29,11,2,95,64,46,29.99,29.37,6,1,7,0.00
2013-2-12,43,38,34,31,29,27,79,69,55,29.51,29.30,14,6,17,0.47
2013-2-13,41,31,22,27,23,19,93,73,50,29.55,29.40,9,2,13,0.04
2013-2-14,44,33,22,24,22,18,87,65,40,29.66,29.38,9,1,10,0.00
2013-2-15,44,30,25,32,25,21,95,83,61,29.67,29.59,9,3,11,0.00
2013-2-16,38,32,26,32,24,14,95,74,54,29.63,29.42,11,1,11,0.08
2013-2-17,26,18,13,16,8,0,93,66,45,29.42,29.09,20,4,26,0.76
2013-2-18,28,19,10,3,-1,-4,62,44,26,29.84,29.37,16,6,25,0.94
2013-2-19,43,29,18,36,12,1,84,49,38,29.85,29.44,10,3,13,0.00
2013-2-20,32,28,23,20,15,11,66,58,48,29.45,29.28,16,7,24,0.27
2013-2-21,30,24,20,15,13,9,79,63,48,29.89,29.45,13,4,23,0.00
2013-2-22,40,29,19,25,19,14,93,68,41,30.07,29.89,9,2,12,0.00
2013-2-23,36,31,27,32,28,23,95,87,77,30.00,29.65,7,1,11,0.00
2013-2-24,33,31,28,32,29,26,95,95,94,29.59,29.39,6,1,9,0.15
2013-2-25,39,31,27,34,30,26,95,93,78,29.91,29.58,6,1,7,0.28
2013-2-26,42,33,28,35,30,26,95,88,67,29.99,29.85,8,1,9,0.15
2013-2-27,38,34,32,37,33,30,96,95,88,29.85,29.25,10,3,17,0.94
2013-2-28,46,37,31,37,34,30,96,89,68,29.30,29.18,7,2,11,0.12